GFSMA_850_rhum_132.txt.gz
RH
76 85 86 84 79 82 88 88 90 90 88 81 76 70 78 96 89 76 69 64 62 64 64 61 52 56 60 67 70 68 71 76 81 80 80 80 78 78 74 75 74 68 70
76 73 73 74 87 76 82 87 90 89 86 83 76 73 77 75 85 84 70 74 71 68 67 64 54 54 60 67 71 71 69 66 74 80 80 80 83 84 84 80 73 78 79
100 97 87 90 89 98 92 84 84 96 97 95 91 87 81 79 72 81 82 70 72 70 70 66 64 51 57 62 68 67 72 68 66 70 73 78 80 82 86 85 78 74 79
98 99 100 99 97 98 92 94 96 97 99 100 98 89 99 99 96 85 82 77 79 76 76 77 74 66 56 59 65 68 69 67 67 69 68 73 79 82 87 89 86 86 82
94 98 99 98 96 91 96 95 93 91 90 84 89 95 94 89 76 88 89 92 78 84 85 96 94 86 81 73 63 67 70 71 68 69 64 60 69 76 83 87 89 79 81
88 91 95 96 96 91 82 81 82 80 80 79 85 77 77 80 77 83 64 75 97 98 100 100 86 82 75 56 72 74 71 72 77 71 68 67 67 71 75 82 89 86 86
58 55 54 53 57 60 55 47 43 39 39 51 76 71 52 58 60 79 74 72 80 76 80 73 71 65 61 71 52 60 77 76 70 79 73 70 71 71 72 76 81 88 86
52 44 41 43 44 44 45 46 44 38 36 49 65 82 77 56 62 81 79 72 70 65 74 70 70 64 73 63 66 46 59 76 73 72 79 74 69 72 77 76 78 83 82
62 46 47 42 44 48 43 42 44 44 40 37 56 99 89 85 77 57 68 78 80 87 83 79 81 76 72 69 62 62 63 64 71 72 75 80 75 72 77 79 75 78 83
89 66 56 54 51 51 49 49 51 53 64 60 60 95 94 99 99 91 74 63 71 77 82 82 80 69 67 67 68 74 66 67 75 63 73 75 73 69 80 79 76 76 80
87 79 77 70 63 59 61 57 55 57 65 84 97 100 99 99 94 100 96 85 77 85 93 91 85 83 77 68 69 66 69 64 63 63 67 75 72 62 69 77 78 76 76
75 78 77 82 79 76 73 72 66 70 74 95 100 97 100 99 99 99 98 99 98 78 78 85 92 89 76 73 74 81 77 76 65 68 65 64 63 59 56 67 79 82 78
94 95 88 90 88 89 84 85 84 86 91 97 99 99 99 99 100 100 100 100 100 97 95 69 82 77 89 93 71 64 60 72 86 88 83 65 63 65 57 57 69 79 84
100 100 100 99 99 98 98 96 99 100 100 99 100 99 99 100 99 100 100 99 98 100 98 95 58 60 77 83 96 81 79 86 89 92 90 90 87 83 79 70 69 71 78
100 100 100 100 100 100 99 100 100 100 99 96 98 98 98 97 98 99 100 100 100 100 99 100 98 57 73 80 77 80 72 82 76 78 81 83 84 85 85 85 83 80 76
100 98 98 100 100 100 96 98 100 99 98 99 99 100 100 99 99 100 100 99 100 100 100 99 98 97 84 76 80 82 79 79 76 86 85 78 90 87 89 92 89 83 78
96 98 100 98 96 97 98 98 99 100 100 100 100 99 99 99 99 100 100 100 100 100 100 98 98 97 98 100 97 98 91 92 89 86 80 83 90 93 90 89 83 84 82
92 95 98 94 82 88 96 100 100 100 100 100 100 100 99 100 100 100 100 100 100 100 100 99 98 98 100 99 96 96 93 88 88 88 73 81 92 95 92 83 77 82 90
89 98 90 90 63 66 96 100 100 100 100 100 100 100 100 100 100 100 98 97 98 100 100 100 100 100 99 98 98 100 96 82 84 89 87 96 82 78 80 83 76 73 79
71 89 86 67 44 44 77 100 100 100 96 91 95 100 86 100 100 100 100 97 94 92 93 96 96 95 96 96 97 95 88 94 95 97 96 98 96 95 80 79 84 78 74
65 79 82 39 25 17 33 86 100 86 64 34 39 55 36 67 96 100 100 100 98 94 97 97 90 88 86 81 85 86 87 84 84 88 90 94 98 99 88 84 84 83 76
35 44 81 38 12 14 38 82 97 95 58 23 14 19 15 13 30 72 92 100 100 100 100 100 100 100 100 99 90 88 84 81 80 75 75 72 86 94 98 96 80 74 76
26 24 38 41 14 10 34 73 100 63 52 41 13 10 9 8 9 15 29 64 81 97 100 100 100 100 99 100 99 90 89 89 87 86 78 87 75 77 87 99 99 80 76
30 25 23 23 14 11 7 27 72 73 84 46 26 11 10 8 7 7 8 14 24 47 79 95 95 100 100 100 98 96 100 89 76 88 96 97 96 86 80 83 88 93 85
79 63 45 27 15 16 8 7 24 44 56 50 32 26 35 37 44 8 6 6 9 13 24 36 48 66 76 90 96 87 84 86 82 87 99 83 78 76 79 84 88 98 99
95 98 84 54 28 17 19 7 8 18 34 30 26 31 79 89 100 44 15 14 10 17 14 11 12 14 22 51 72 93 98 100 99 94 93 92 84 96 87 76 92 96 99

GFSMA_850_rhum_135.txt.gz
RH
70 69 71 75 70 76 81 78 83 91 92 92 86 75 73 70 66 65 66 65 62 70 75 70 64 62 51 55 62 65 71 79 76 76 74 73 76 74 73 71 73 72 65
88 82 84 77 77 70 86 85 84 90 90 88 88 97 97 94 94 92 81 75 66 68 72 74 71 68 54 52 58 64 67 70 77 75 75 76 76 76 74 72 72 74 72
92 91 98 99 99 90 85 89 91 89 90 94 93 96 99 100 99 96 89 81 99 84 80 75 74 73 65 50 57 66 69 68 69 70 74 76 77 80 79 79 77 76 75
96 84 89 96 97 99 89 82 80 69 72 84 83 75 77 82 83 71 74 70 74 95 90 82 79 81 79 63 54 61 70 71 70 71 70 70 76 78 80 82 83 82 76
88 93 97 93 92 97 98 94 89 83 72 74 81 64 52 50 62 62 58 70 78 80 93 96 92 96 92 83 70 64 67 71 72 74 74 71 73 77 78 80 83 83 82
67 69 82 92 93 89 95 95 90 86 83 75 57 38 23 21 26 40 60 80 76 67 67 97 88 96 99 96 69 72 74 66 63 73 75 77 74 74 80 79 79 83 83
51 49 47 46 45 48 47 45 44 40 38 37 34 30 22 19 28 42 67 60 55 68 82 75 74 59 62 72 73 76 70 68 76 59 74 78 79 77 73 80 79 82 85
46 42 39 38 37 38 36 34 36 34 34 40 45 44 42 25 38 53 84 75 83 73 84 83 86 91 74 75 72 73 76 87 85 79 58 72 77 79 79 75 79 81 85
60 60 61 56 48 51 42 46 44 42 45 59 63 81 94 92 65 27 29 42 56 65 72 75 82 93 97 89 80 77 69 83 75 67 73 69 74 76 82 79 79 79 82
75 68 68 70 72 69 64 62 60 58 56 66 87 99 99 99 98 88 55 42 41 53 61 94 92 95 98 99 96 88 68 71 75 71 77 66 74 79 78 80 79 78 82
76 74 73 74 75 76 77 76 75 75 80 87 100 98 97 97 98 99 97 85 53 53 76 92 97 95 97 99 98 87 78 72 67 67 58 55 66 76 73 82 79 80 77
74 75 76 80 88 90 89 86 88 94 94 99 100 98 97 99 98 98 99 100 93 39 63 40 56 80 91 88 85 86 85 80 82 80 78 68 66 80 65 73 79 85 81
94 94 95 98 98 99 94 98 100 100 100 100 100 99 98 99 98 98 98 98 99 99 75 82 54 50 70 84 98 100 94 87 82 80 89 84 81 85 74 71 74 82 83
100 100 100 100 100 100 100 100 100 100 100 99 99 99 98 99 97 98 100 99 97 100 100 100 97 76 90 80 80 85 86 88 85 87 80 90 96 89 80 74 67 72 65
100 100 100 100 100 100 100 98 100 100 100 99 100 100 100 100 100 100 100 99 100 100 100 99 99 98 79 87 100 94 89 76 99 95 86 79 86 88 90 80 73 70 70
92 93 91 91 100 100 99 100 98 100 100 99 100 100 100 100 100 100 99 99 100 100 100 100 97 98 100 99 99 94 99 98 99 98 97 91 84 77 82 81 84 85 87
97 92 82 75 90 99 99 99 98 99 100 100 100 100 100 100 100 100 100 100 100 100 100 98 100 100 100 99 99 96 90 97 94 97 91 89 86 98 91 88 86 85 81
94 86 67 60 60 100 99 100 99 100 100 100 100 100 100 100 100 100 98 98 100 100 100 100 99 99 100 100 100 99 97 94 99 94 91 87 83 88 88 86 82 83 87
83 70 54 29 31 80 93 93 88 82 69 91 94 59 100 100 100 100 100 95 95 96 98 100 95 92 91 88 88 92 96 98 98 100 99 98 91 77 79 80 88 95 92
61 48 41 17 15 43 63 71 72 47 24 48 55 37 55 92 100 100 100 100 99 93 98 100 92 85 81 79 78 77 73 76 77 80 87 89 88 86 90 87 85 88 96
53 41 28 9 10 29 69 79 74 38 16 17 21 14 18 35 66 90 99 100 100 95 97 100 99 99 89 78 80 80 74 66 66 71 71 72 75 81 90 95 96 98 99
25 33 15 8 8 32 68 64 50 28 21 11 11 12 14 14 19 24 58 80 100 100 100 100 100 100 100 100 94 87 78 71 72 71 65 62 66 66 72 78 88 91 94
20 16 13 10 8 23 76 52 46 37 27 24 20 18 18 15 12 13 26 31 38 74 100 100 100 100 100 100 99 86 81 81 80 88 88 65 66 63 67 72 76 80 92
24 14 12 10 10 11 32 67 52 40 34 24 26 45 26 34 36 14 12 19 21 24 48 58 48 63 82 89 87 89 86 77 71 96 91 71 65 61 57 65 78 88 86
57 35 24 14 14 32 21 25 36 30 25 27 35 64 57 57 96 11 8 8 11 16 26 26 25 26 37 42 60 54 53 80 86 93 90 95 85 67 58 62 69 67 80
86 77 54 27 15 27 83 41 25 27 33 34 37 52 97 96 100 65 12 9 9 15 12 9 9 9 14 19 26 43 66 88 100 94 96 96 100 100 79 65 63 68 67

GFSMA_850_rhum_141.txt.gz
RH
97 97 100 98 93 92 97 97 91 90 90 85 79 75 77 82 79 79 81 80 76 76 71 68 66 68 78 88 85 84 77 74 70 69 70 70 72 70 68 69 67 62 60
88 95 99 97 98 95 91 84 82 84 82 82 84 85 79 76 77 75 74 73 78 78 75 76 65 60 78 78 81 97 92 79 79 73 73 74 75 74 74 71 68 70 63
80 90 89 81 88 90 88 81 80 81 87 86 81 68 72 68 64 71 69 66 73 77 72 79 73 58 65 77 75 68 98 96 82 81 75 75 78 77 79 78 73 73 74
80 82 84 77 81 88 88 82 82 79 72 69 74 73 72 67 60 62 64 48 41 49 58 51 60 62 63 71 77 78 89 98 94 88 82 80 80 82 82 81 80 76 74
64 67 70 72 75 77 78 79 85 82 73 62 64 66 67 71 63 64 47 26 34 46 64 60 59 61 66 68 78 78 92 72 92 72 80 78 81 82 82 84 83 82 79
49 48 49 50 51 52 52 53 56 59 59 54 48 48 47 50 45 31 22 21 39 56 71 76 74 70 76 74 88 100 98 75 59 60 82 71 86 84 84 84 86 85 84
54 52 48 44 41 39 37 37 38 39 37 38 39 35 33 28 26 24 24 29 62 78 98 99 99 99 100 96 98 99 93 94 84 83 58 57 69 86 80 83 82 84 86
53 55 58 60 58 56 54 50 45 40 40 44 42 42 36 37 50 56 67 81 93 97 100 99 100 99 100 100 99 100 93 93 82 71 60 64 63 74 82 79 81 82 82
37 38 39 41 46 52 59 62 61 61 62 60 72 79 92 86 54 62 90 87 94 94 92 92 100 100 99 96 100 99 100 97 90 75 74 89 75 79 87 80 81 80 82
41 43 45 46 44 48 54 56 63 71 79 86 79 99 98 99 99 67 48 64 68 66 75 75 76 86 95 99 99 100 99 97 99 92 83 83 74 98 91 80 80 76 72
48 49 49 52 58 60 63 70 81 95 99 99 99 99 99 99 97 98 99 88 64 65 58 49 50 52 63 85 91 96 100 100 94 99 100 94 82 87 88 83 80 75 73
60 63 70 75 79 85 87 96 100 100 100 99 99 98 99 100 99 100 100 99 100 94 80 58 59 74 72 66 81 88 87 94 100 100 96 94 94 98 84 82 97 88 74
69 76 80 84 96 99 98 99 98 98 99 99 97 98 99 100 100 100 100 100 100 99 97 94 87 78 90 98 93 92 94 86 95 97 92 88 79 81 80 83 87 90 81
78 82 81 86 92 93 90 88 89 93 96 96 98 100 100 100 100 100 100 100 98 98 98 98 96 99 97 99 96 90 91 92 97 93 87 81 78 73 75 78 88 92 89
79 82 75 78 86 87 85 84 82 88 90 91 91 94 96 99 99 99 100 100 100 100 99 100 98 98 92 91 93 88 79 90 96 87 91 88 81 84 97 88 90 86 84
73 73 61 60 75 88 87 84 82 84 87 94 96 93 92 91 95 96 97 99 99 100 99 100 99 98 98 89 98 100 100 100 100 99 100 100 100 94 91 87 83 94 88
54 54 46 41 62 59 76 69 73 77 78 78 80 96 95 93 94 95 96 97 98 98 99 99 100 98 91 89 89 97 99 99 100 99 96 96 100 98 94 78 68 82 73
38 29 24 26 46 49 51 37 30 21 27 36 24 59 70 84 91 95 96 96 97 96 97 99 98 88 82 83 81 83 93 97 99 100 100 100 100 100 100 92 65 46 66
27 25 16 20 31 32 35 32 21 11 14 12 13 18 19 41 55 76 78 78 90 98 100 98 86 62 58 64 64 67 71 89 100 86 89 97 99 100 99 100 100 98 100
26 21 12 15 22 27 30 28 18 10 9 12 14 14 12 13 19 38 53 46 49 38 50 45 38 30 26 28 31 31 42 76 85 67 71 71 81 92 93 97 99 96 100
23 15 9 17 24 20 20 28 22 14 11 15 21 22 14 18 30 24 28 32 18 18 17 20 21 17 10 11 12 19 24 38 50 40 48 52 51 60 78 88 92 93 95
20 11 9 15 21 21 19 22 23 15 15 16 20 25 17 14 17 19 21 25 18 16 16 23 28 26 22 16 14 14 17 22 26 19 21 19 26 35 64 77 79 81 83
12 10 10 11 20 24 21 18 15 17 23 24 25 28 20 13 14 18 19 16 13 15 20 32 29 33 27 20 16 10 10 26 61 39 15 7 7 11 46 80 35 32 55
13 11 10 14 16 20 24 22 21 24 31 38 44 48 34 17 11 15 14 11 11 11 14 18 20 21 18 13 12 12 9 13 25 27 9 9 4 4 26 75 37 8 11
22 16 14 22 26 20 28 35 36 31 33 43 67 95 66 38 16 14 13 12 12 11 13 16 19 17 12 9 8 7 4 4 7 18 9 17 12 4 4 30 8 6 5
49 34 22 29 34 55 68 55 42 35 31 35 44 55 100 100 80 12 11 11 10 11 10 11 11 12 10 10 11 10 10 11 10 16 14 15 9 8 5 5 3 3 4

GFSMA_850_rhum_147.txt.gz
RH
97 92 92 89 91 89 90 88 86 87 86 83 79 74 70 67 64 63 58 58 63 69 74 77 80 78 82 76 61 67 84 87 88 79 79 75 81 78 77 72 65 64 61
89 88 84 84 86 83 83 82 82 78 80 75 71 72 67 64 61 59 69 59 48 50 57 67 78 89 91 88 81 60 68 73 68 87 83 65 59 73 79 79 80 70 65
72 79 85 88 85 85 83 82 80 76 70 74 76 75 72 70 65 58 56 70 64 50 52 61 62 88 100 96 95 85 70 68 79 92 85 63 54 60 60 74 81 82 76
58 60 62 64 64 64 63 62 61 62 64 65 61 59 66 70 61 58 57 68 73 66 54 58 64 74 99 99 99 98 89 71 86 78 76 62 66 57 62 71 79 86 86
44 44 44 44 45 45 45 46 45 45 45 46 46 46 47 47 47 50 48 50 62 73 78 71 57 58 71 91 82 93 92 94 88 78 78 76 61 58 58 61 84 84 89
41 41 40 41 41 42 42 42 42 42 41 39 39 38 38 37 38 40 40 40 42 47 70 74 82 91 99 99 89 89 89 90 89 87 77 79 76 73 60 60 87 83 88
23 22 23 24 24 25 24 24 25 28 35 37 37 38 42 42 38 47 55 66 75 87 99 100 98 99 97 92 92 88 97 98 94 90 85 83 78 73 73 73 84 89 90
15 16 16 16 17 18 20 21 22 24 27 32 42 58 86 55 53 63 82 99 98 98 98 100 99 97 98 100 100 100 99 97 100 100 99 98 81 73 82 77 79 88 88
21 22 25 28 31 35 38 39 39 38 37 37 58 66 97 92 70 74 80 92 93 95 95 92 92 93 99 97 100 100 100 99 100 100 96 82 77 83 87 70 74 74 88
32 34 36 39 42 47 50 51 51 51 50 50 57 75 98 99 98 96 91 94 94 87 82 77 77 74 72 84 98 100 99 98 100 99 96 81 86 89 85 82 82 73 86
40 44 47 51 54 56 56 55 55 55 56 64 79 82 85 97 99 100 100 97 95 97 98 79 84 72 70 72 69 85 99 98 100 99 99 99 100 100 100 100 100 96 96
51 53 56 58 61 61 59 59 62 63 68 76 83 89 91 95 96 97 99 100 94 95 91 98 90 89 87 84 74 79 77 78 84 89 93 98 100 100 100 98 99 100 89
53 53 55 56 56 57 56 58 65 67 69 71 72 75 82 92 99 100 100 100 100 92 99 100 99 99 99 99 95 90 88 73 71 86 89 89 94 99 100 100 100 98 92
49 49 49 50 50 51 46 44 47 50 62 68 74 77 80 83 88 91 96 100 100 95 95 100 100 100 100 98 98 95 92 90 78 68 69 84 87 85 83 88 94 93 92
46 43 41 36 33 30 27 25 23 25 38 51 63 71 80 85 86 88 90 100 100 100 91 100 99 98 98 98 96 91 99 99 100 98 90 74 74 80 82 79 79 83 96
40 29 19 14 12 13 14 14 13 13 18 22 29 36 52 63 77 87 92 94 100 100 100 100 98 89 95 96 98 96 100 99 100 99 97 95 95 96 94 84 80 80 81
29 19 12 10 11 11 10 11 10 9 10 10 11 13 24 38 58 74 89 97 97 98 100 100 96 94 95 96 97 98 100 100 100 100 100 95 95 92 90 87 87 90 98
22 12 9 9 10 9 11 9 7 6 7 8 8 11 14 21 36 47 57 74 80 81 93 95 79 82 87 94 96 97 98 94 98 96 100 100 99 100 99 98 97 98 99
14 10 8 8 7 8 7 7 7 7 9 12 11 12 15 21 29 32 23 24 23 28 27 37 22 13 16 21 39 97 98 78 89 75 73 97 99 99 99 99 100 100 99
13 10 8 6 6 6 6 6 9 11 13 16 15 13 20 23 35 32 17 17 16 20 22 32 21 15 12 11 16 41 98 89 20 61 54 38 90 85 89 87 82 78 80
12 9 9 6 6 6 5 9 10 14 17 18 17 11 11 11 10 9 14 12 13 14 20 38 24 15 8 6 11 26 54 98 14 12 8 5 52 61 28 18 16 12 15
11 9 7 6 8 8 5 6 14 18 19 23 19 12 11 11 9 7 7 6 6 8 6 6 6 6 6 7 8 20 26 67 47 5 4 4 13 86 37 18 11 6 4
9 7 6 9 10 8 6 8 17 21 21 23 18 12 10 10 8 8 7 7 6 6 5 6 7 8 8 7 6 5 8 38 7 4 4 6 13 78 44 7 3 3 2
10 8 8 10 10 10 10 14 22 25 21 21 19 12 10 9 8 8 7 7 6 6 6 6 7 6 6 6 5 5 5 12 14 4 3 4 3 17 57 5 3 3 2
10 9 11 12 10 12 12 18 27 28 25 19 18 18 11 9 8 8 7 7 7 7 8 8 8 7 6 6 5 5 4 4 5 5 4 4 3 3 30 4 3 3 2
17 19 18 17 17 17 19 25 29 29 28 23 22 26 20 7 8 8 7 7 7 8 10 10 9 8 7 6 6 6 6 6 6 6 6 6 4 4 4 3 3 3 3